Location: Unspecified
(0.0000°N, 0.0000°E)
Time: 00:13:02
(UTC+00:00)

Hubble Space Telescope - Pass Details

Date: 03 February 2013
Orbit: 539 x 543 km, 28.5° (Epoch: 27 June)

Event Time Altitude Azimuth Distance (km) Brightness Sun altitude
Rises 19:20:47 0° 214° (SW) 2,679 5.2 -16.0°
Reaches altitude 10° 19:23:42 10° 193° (SSW) 1,787 3.8 -16.7°
Maximum altitude 19:26:24 17° 152° (SSE) 1,407 2.8 -17.4°
Enters shadow 19:27:22 16° 135° (SE) 1,460 2.7 -17.6°
